• In United Kingdom
  • List of Countries
  • For 7 days
  • Water Temperature
  • Satellite Maps
  • Weather Map
  • Weather Widgets
  • user-avatar
    Login

    Hourly Weather Sarajevo

    Today, 22 September, Saturday

    Time Temperature Precipitation Wind Pressure Humidity
    00:00 +15°C° 0 mm 1 mps 690 mmHg 84%
    01:00 +15°C° 0 mm 1 mps 690 mmHg 83%
    02:00 +15°C° 0 mm 1 mps 690 mmHg 83%
    03:00 +15°C° 0 mm 1 mps 690 mmHg 82%
    04:00 +14°C° 0 mm 1 mps 690 mmHg 81%
    05:00 +15°C° 0 mm 1 mps 690 mmHg 77%
    06:00 +16°C° 0 mm 1 mps 690 mmHg 74%
    07:00 +19°C° 0 mm 1 mps 691 mmHg 67%
    08:00 +21°C° 0 mm 1 mps 691 mmHg 60%
    09:00 +23°C° 0 mm 1 mps 692 mmHg 53%
    10:00 +25°C° 0 mm 1 mps 693 mmHg 46%
    11:00 +25°C° 0 mm 1 mps 693 mmHg 45%
    12:00 +26°C° 0 mm 1 mps 693 mmHg 45%
    13:00 +26°C° 0 mm 2 mps 693 mmHg 44%
    14:00 +25°C° 0 mm 2 mps 693 mmHg 49%
    15:00 +24°C° 0 mm 2 mps 693 mmHg 54%
    16:00 +23°C° 0 mm 2 mps 692 mmHg 58%
    17:00 +20°C° 0 mm 2 mps 692 mmHg 67%
    18:00 +19°C° 0 mm 1 mps 692 mmHg 76%
    19:00 +15°C° 0 mm 1 mps 692 mmHg 84%
    20:00 +15°C° 0 mm 1 mps 692 mmHg 85%
    21:00 +14°C° 0 mm 1 mps 692 mmHg 86%
    22:00 +13°C° 0 mm 1 mps 692 mmHg 87%
    23:00 +13°C° 0 mm 1 mps 692 mmHg 87%

    Tomorrow, 23 September, Sunday

    Time Temperature Precipitation Wind Pressure Humidity
    00:00 +13°C° 0 mm 1 mps 692 mmHg 87%
    01:00 +13°C° 0 mm 1 mps 692 mmHg 88%
    02:00 +13°C° 0 mm 1 mps 692 mmHg 87%
    03:00 +14°C° 0 mm 1 mps 692 mmHg 87%
    04:00 +14°C° 0 mm 1 mps 692 mmHg 87%
    05:00 +15°C° 0 mm 1 mps 692 mmHg 83%
    06:00 +16°C° 0 mm 1 mps 692 mmHg 80%
    07:00 +18°C° 0 mm 1 mps 693 mmHg 76%
    08:00 +20°C° 0 mm 1 mps 693 mmHg 66%
    09:00 +23°C° 0 mm 1 mps 694 mmHg 57%
    10:00 +25°C° 0 mm 1 mps 694 mmHg 47%
    11:00 +26°C° 0 mm 1 mps 694 mmHg 46%
    12:00 +27°C° 0 mm 1 mps 694 mmHg 45%
    13:00 +28°C° 0 mm 2 mps 694 mmHg 43%
    14:00 +27°C° 0 mm 2 mps 693 mmHg 47%
    15:00 +26°C° 0 mm 2 mps 693 mmHg 51%
    16:00 +26°C° 0 mm 2 mps 692 mmHg 54%
    17:00 +23°C° 0 mm 2 mps 692 mmHg 63%
    18:00 +21°C° 0 mm 1 mps 691 mmHg 72%
    19:00 +19°C° 0 mm 1 mps 691 mmHg 81%
    20:00 +18°C° 0 mm 1 mps 690 mmHg 83%
    21:00 +17°C° 0 mm 2 mps 690 mmHg 85%
    22:00 +16°C° 0 mm 2 mps 690 mmHg 87%
    23:00 +16°C° 0 mm 2 mps 690 mmHg 87%

    Day after tomorrow, 24 September, Monday

    Time Temperature Precipitation Wind Pressure Humidity
    00:00 +16°C° 0 mm 2 mps 689 mmHg 86%
    01:00 +15°C° 0 mm 2 mps 689 mmHg 86%
    02:00 +15°C° 0 mm 2 mps 689 mmHg 85%
    03:00 +15°C° 0 mm 2 mps 688 mmHg 85%
    04:00 +15°C° 0 mm 2 mps 688 mmHg 85%
    05:00 +16°C° 0 mm 2 mps 688 mmHg 81%
    06:00 +16°C° 0 mm 2 mps 689 mmHg 77%
    07:00 +17°C° 0 mm 2 mps 689 mmHg 73%
    08:00 +18°C° 0.1 mm 2 mps 690 mmHg 71%
    09:00 +19°C° 0.1 mm 2 mps 691 mmHg 69%
    10:00 +20°C° 0.1 mm 3 mps 692 mmHg 67%
    11:00 +18°C° 0.2 mm 3 mps 692 mmHg 70%
    12:00 +16°C° 0.2 mm 3 mps 693 mmHg 73%
    13:00 +13°C° 0.2 mm 4 mps 693 mmHg 76%
    14:00 +12°C° 0 mm 4 mps 693 mmHg 72%
    15:00 +12°C° 0 mm 4 mps 693 mmHg 68%
    16:00 +12°C° 0 mm 4 mps 692 mmHg 64%
    17:00 +11°C° 0 mm 4 mps 693 mmHg 65%
    18:00 +10°C° 0 mm 4 mps 693 mmHg 66%
    19:00 +8°C° 0 mm 4 mps 693 mmHg 68%
    20:00 +8°C° 0 mm 4 mps 693 mmHg 67%
    21:00 +8°C° 0 mm 4 mps 694 mmHg 66%
    22:00 +8°C° 0 mm 4 mps 694 mmHg 65%
    23:00 +8°C° 0.4 mm 4 mps 694 mmHg 69%

    25 September, Tuesday

    Time Temperature Precipitation Wind Pressure Humidity
    00:00 +7°C° 0.4 mm 4 mps 694 mmHg 73%
    01:00 +6°C° 0.4 mm 4 mps 695 mmHg 77%
    02:00 +6°C° 0.4 mm 4 mps 695 mmHg 80%
    03:00 +5°C° 0.4 mm 3 mps 695 mmHg 82%
    04:00 +5°C° 0.4 mm 3 mps 695 mmHg 85%
    05:00 +5°C° 0 mm 3 mps 695 mmHg 82%
    06:00 +5°C° 0 mm 4 mps 696 mmHg 79%
    07:00 +5°C° 0 mm 4 mps 696 mmHg 76%
    08:00 +6°C° 0 mm 4 mps 696 mmHg 66%
    09:00 +8°C° 0 mm 5 mps 697 mmHg 56%
    10:00 +9°C° 0 mm 5 mps 697 mmHg 46%
    11:00 +10°C° 0 mm 5 mps 697 mmHg 44%
    12:00 +12°C° 0 mm 5 mps 697 mmHg 41%
    13:00 +13°C° 0 mm 5 mps 697 mmHg 38%
    14:00 +12°C° 0 mm 5 mps 697 mmHg 39%
    15:00 +10°C° 0 mm 5 mps 697 mmHg 40%
    16:00 +10°C° 0 mm 5 mps 696 mmHg 41%
    17:00 +8°C° 0 mm 5 mps 697 mmHg 45%
    18:00 +6°C° 0 mm 4 mps 697 mmHg 49%
    19:00 +4°C° 0 mm 3 mps 697 mmHg 53%
    20:00 +4°C° 0 mm 3 mps 698 mmHg 55%
    21:00 +3°C° 0 mm 3 mps 698 mmHg 56%
    22:00 +2°C° 0 mm 3 mps 698 mmHg 58%
    23:00 +2°C° 0 mm 3 mps 698 mmHg 59%

    26 September, Wednesday

    Time Temperature Precipitation Wind Pressure Humidity
    00:00 +1°C° 0 mm 3 mps 698 mmHg 61%
    01:00 +1°C° 0 mm 3 mps 699 mmHg 62%
    02:00 +1°C° 0 mm 3 mps 699 mmHg 65%
    03:00 0°C° 0 mm 3 mps 699 mmHg 67%
    04:00 0°C° 0 mm 3 mps 699 mmHg 69%
    05:00 +1°C° 0 mm 3 mps 699 mmHg 66%
    06:00 +2°C° 0 mm 3 mps 699 mmHg 62%
    07:00 +3°C° 0 mm 3 mps 700 mmHg 59%
    08:00 +5°C° 0 mm 3 mps 700 mmHg 51%
    09:00 +7°C° 0 mm 4 mps 700 mmHg 43%
    10:00 +10°C° 0 mm 4 mps 701 mmHg 35%
    11:00 +11°C° 0 mm 4 mps 701 mmHg 33%
    12:00 +12°C° 0 mm 4 mps 701 mmHg 31%
    13:00 +13°C° 0 mm 4 mps 701 mmHg 29%
    14:00 +13°C° 0 mm 4 mps 700 mmHg 31%
    15:00 +13°C° 0 mm 3 mps 700 mmHg 32%
    16:00 +13°C° 0 mm 3 mps 700 mmHg 34%
    17:00 +10°C° 0 mm 2 mps 699 mmHg 40%
    18:00 +7°C° 0 mm 2 mps 699 mmHg 47%
    19:00 +5°C° 0 mm 2 mps 699 mmHg 54%
    20:00 +4°C° 0 mm 2 mps 699 mmHg 55%
    21:00 +4°C° 0 mm 2 mps 699 mmHg 56%
    22:00 +4°C° 0 mm 2 mps 699 mmHg 57%
    23:00 +3°C° 0 mm 2 mps 699 mmHg 56%

    27 September, Thursday

    Time Temperature Precipitation Wind Pressure Humidity
    00:00 +3°C° 0 mm 2 mps 699 mmHg 55%
    01:00 +3°C° 0 mm 2 mps 698 mmHg 53%
    02:00 +3°C° 0 mm 2 mps 698 mmHg 50%
    03:00 +3°C° 0 mm 2 mps 698 mmHg 46%
    04:00 +4°C° 0 mm 2 mps 697 mmHg 43%
    05:00 +6°C° 0 mm 1 mps 697 mmHg 41%
    06:00 +7°C° 0 mm 1 mps 697 mmHg 39%
    07:00 +8°C° 0 mm 1 mps 697 mmHg 37%
    08:00 +12°C° 0 mm 1 mps 697 mmHg 32%
    09:00 +15°C° 0 mm 1 mps 698 mmHg 27%
    10:00 +19°C° 0 mm 1 mps 698 mmHg 22%
    11:00 +19°C° 0 mm 2 mps 698 mmHg 20%
    12:00 +20°C° 0 mm 2 mps 697 mmHg 19%
    13:00 +21°C° 0 mm 2 mps 697 mmHg 18%
    14:00 +20°C° 0 mm 2 mps 696 mmHg 22%
    15:00 +20°C° 0 mm 2 mps 696 mmHg 26%
    16:00 +19°C° 0 mm 2 mps 695 mmHg 30%
    17:00 +16°C° 0 mm 2 mps 694 mmHg 34%
    18:00 +13°C° 0 mm 2 mps 694 mmHg 39%
    19:00 +9°C° 0 mm 2 mps 693 mmHg 43%
    20:00 +9°C° 0 mm 2 mps 693 mmHg 45%
    21:00 +8°C° 0 mm 2 mps 692 mmHg 46%
    22:00 +7°C° 0 mm 2 mps 692 mmHg 48%
    23:00 +7°C° 0 mm 2 mps 692 mmHg 48%
    Show more